Weather in Tangshan

China     28°30′12″N   114°35′33″E
temp.,
°C
wind,
m/s
gust,
m/s
humid.,
%
clouds,
%
prec.,
mm/h
press.,
hPa
HPBL,
m
8 march, mon
mon823:00+7sse1294100 0.0 1027235
02:00+6ese009695 0.0 102546
05:00+7se019579 0.1 102596
08:00+7se229789 0.6 1025179
11:00+7ese1293100 0.8 1026224
14:00+7e1295100 4.7 1024166
17:00+7ese1297100 1.5 1023138
20:00+7ese119896 1.5 1024101
9 march, tue
tue923:00+8nne009699 0.0 102572
02:00+7nw129682 0.0 102424
05:00+7nnw119594 0.0 102326
08:00+9ese119276 0.0 1025139
11:00+11e118482 0.0 1026403
14:00+12ese128491 0.0 1024462
17:00+11e1194100 0.4 102380
20:00+10nne0097100 1.5 102532
10 march, wed
wed1023:00+10e1197100 1.7 102551
02:00+10ese1198100 1.8 102344
05:00+10ese119696 0.0 102224
08:00+10ese129598 0.1 102398
11:00+10ese1298100 2.9 1023138
14:00+11ene1299100 9.1 1022133
17:00+11sse0099100 3.6 102142
20:00+11sse1199100 4.4 102123
11 march, thu
thu1123:00+11nne0199100 0.9 102222
02:00+11se0098100 1.1 102122
05:00+11n119897 0.0 102123
08:00+11nnw119699 0.0 102356
11:00+12e1196100 0.1 102392
14:00+13ese0195100 0.4 1021144
17:00+13sse1197100 0.1 1021108
20:00+12nw0098100 0.1 102222
12 march, fri
fri1223:00+11nne019786 0.0 102322
02:00+12n009693 0.0 102222
05:00+11e119595 0.0 102022
08:00+12sse119498 0.0 102244
11:00+15ese1187100 0.1 1023286
14:00+17ese1281100 0.1 1020497
17:00+16s128799 0.1 1019293
20:00+14s119699 0.6 102024